Weather History for Big Bear City, CA

Change the Weather History Date:

Tuesday, February 12, 2013

  Actual Average (KBUO) Record (KBUO)
Temperature  
Mean Temperature 22 °F -  
Max Temperature 37 °F 56 °F 62 °F (1999)
Min Temperature 8 °F 40 °F 39 °F (1998)
Degree Days  
Heating Degree Days 42    
Moisture  
Dew Point 6 °F    
Average Humidity 52    
Maximum Humidity 73    
Minimum Humidity 28    
Precipitation  
Precipitation 0.00 in - - ()
Sea Level Pressure  
Sea Level Pressure 30.23 in    
Wind  
Wind Speed 2 mph (East)    
Max Wind Speed 12 mph    
Max Gust Speed -    
Visibility 10 miles    
Events      
Averages and records for this station are not official NWS values.
T = Trace of Precipitation, MM = Missing Value Source: NWS Daily Summary

Daily Weather History Graph

Daily Weather History Graph

Search for Another Location

Airport:

Trip Planner

Search our weather history database for the weather conditions in past years. The results will help you decide how hot, cold, wet, or windy it might be!

Date:

Astronomy

Feb. 12, 2013 Rise Set
Actual Time 6:35 AM PST 5:28 PM PST
Civil Twilight 6:09 AM PST 5:54 PM PST
Nautical Twilight 5:39 AM PST 6:23 PM PST
Astronomical Twilight 5:10 AM PST 6:53 PM PST
Moon 7:44 AM PST (2/12) 8:23 PM PST (2/12)
Length of Visible Light 11h 45m
Length of Day
10h 53m
Waxing Crescent, 8% of the Moon is Illuminated
Feb 12
Waxing Crescent
Feb 17
First Quarter
Feb 25
Full
Mar 4
Last Quarter
Mar 11
New

Hourly Weather History & Observations

Time (PST) Temp. Windchill Dew Point Humidity Pressure Visibility Wind Dir Wind Speed Gust Speed Precip Events Conditions
12:15 AM 10.4 °F - 1.4 °F 67% 30.17 in 10.0 mi Calm Calm - N/A   Clear
12:35 AM 10.4 °F - 1.4 °F 67% 30.18 in 10.0 mi Calm Calm - N/A   Clear
12:55 AM 10.4 °F - 1.4 °F 67% 30.17 in 10.0 mi Calm Calm - N/A   Clear
1:15 AM 10.4 °F - 1.4 °F 67% 30.17 in 10.0 mi Calm Calm - N/A   Clear
1:35 AM 10.4 °F - 1.4 °F 67% 30.17 in 10.0 mi Calm Calm - N/A   Clear
1:55 AM 10.4 °F - 1.4 °F 67% 30.17 in 10.0 mi Calm Calm - N/A   Clear
2:15 AM 10.4 °F - 1.4 °F 67% 30.17 in 10.0 mi Calm Calm - N/A   Clear
2:35 AM 10.4 °F - 1.4 °F 67% 30.17 in 10.0 mi Calm Calm - N/A   Clear
2:55 AM 10.4 °F - 1.4 °F 67% 30.17 in 10.0 mi Calm Calm - N/A   Clear
3:15 AM 10.4 °F - 1.4 °F 67% 30.17 in 10.0 mi Calm Calm - N/A   Clear
3:35 AM 10.4 °F - 1.4 °F 67% 30.17 in 10.0 mi Calm Calm - N/A   Clear
3:55 AM 8.6 °F - 1.4 °F 73% 30.17 in 10.0 mi Calm Calm - N/A   Clear
4:15 AM 8.6 °F - 1.4 °F 73% 30.18 in 10.0 mi Calm Calm - N/A   Clear
4:35 AM 8.6 °F 2.0 °F 1.4 °F 73% 30.19 in 10.0 mi East 3.5 mph - N/A   Clear
4:55 AM 8.6 °F - 1.4 °F 73% 30.20 in 10.0 mi Calm Calm - N/A   Clear
5:15 AM 8.6 °F 2.0 °F -0.4 °F 67% 30.21 in 10.0 mi East 3.5 mph - N/A   Clear
5:35 AM 8.6 °F - 1.4 °F 73% 30.21 in 10.0 mi Calm Calm - N/A   Clear
5:55 AM 8.6 °F - 1.4 °F 73% 30.21 in 10.0 mi Calm Calm - N/A   Clear
6:15 AM 8.6 °F 2.0 °F 1.4 °F 73% 30.22 in 10.0 mi East 3.5 mph - N/A   Clear
6:35 AM 8.6 °F - 1.4 °F 73% 30.23 in 10.0 mi Calm Calm - N/A   Clear
6:55 AM 8.6 °F - 1.4 °F 73% 30.23 in 10.0 mi Calm Calm - N/A   Clear
7:15 AM 10.4 °F 4.0 °F 1.4 °F 67% 30.25 in 10.0 mi ENE 3.5 mph - N/A   Clear
7:35 AM 12.2 °F 4.3 °F 1.4 °F 62% 30.26 in 10.0 mi East 4.6 mph - N/A   Clear
7:55 AM 14.0 °F 8.2 °F 3.2 °F 62% 30.26 in 10.0 mi SE 3.5 mph - N/A   Clear
8:15 AM 19.4 °F - 5.0 °F 54% 30.26 in 10.0 mi Calm Calm - N/A   Clear
8:35 AM 23.0 °F 15.8 °F 5.0 °F 46% 30.26 in 10.0 mi NE 5.8 mph - N/A   Clear
8:55 AM 30.2 °F 25.4 °F 5.0 °F 34% 30.27 in 10.0 mi East 4.6 mph - N/A   Clear
9:15 AM 32.0 °F 28.7 °F 5.0 °F 32% 30.27 in 10.0 mi East 3.5 mph - N/A   Clear
9:35 AM 32.0 °F 26.4 °F 5.0 °F 32% 30.27 in 10.0 mi East 5.8 mph - N/A   Clear
9:55 AM 33.8 °F 30.8 °F 5.0 °F 30% 30.27 in 10.0 mi ESE 3.5 mph - N/A   Clear
10:15 AM 35.6 °F 29.2 °F 6.8 °F 30% 30.27 in 10.0 mi ENE 8.1 mph - N/A   Clear
10:35 AM 35.6 °F 29.2 °F 6.8 °F 30% 30.27 in 10.0 mi ENE 8.1 mph - N/A   Clear
10:55 AM 35.6 °F 28.6 °F 8.6 °F 33% 30.27 in 10.0 mi East 9.2 mph - N/A   Clear
11:15 AM 35.6 °F 29.2 °F 6.8 °F 30% 30.26 in 10.0 mi East 8.1 mph - N/A   Clear
11:35 AM 35.6 °F 29.2 °F 8.6 °F 33% 30.26 in 10.0 mi East 8.1 mph - N/A   Clear
11:55 AM 35.6 °F 29.9 °F 8.6 °F 33% 30.25 in 10.0 mi East 6.9 mph - N/A   Clear
12:15 PM 37.4 °F 30.3 °F 6.8 °F 28% 30.24 in 10.0 mi ENE 10.4 mph - N/A   Clear
12:35 PM 37.4 °F 29.8 °F 8.6 °F 30% 30.23 in 10.0 mi ENE 11.5 mph - N/A   Clear
12:55 PM 37.4 °F 31.4 °F 8.6 °F 30% 30.23 in 10.0 mi ESE 8.1 mph - N/A   Clear
1:15 PM 35.6 °F 28.6 °F 8.6 °F 33% 30.23 in 10.0 mi ESE 9.2 mph - N/A   Clear
1:35 PM 37.4 °F 32.8 °F 6.8 °F 28% 30.22 in 10.0 mi ESE 5.8 mph - N/A   Clear
1:55 PM 37.4 °F 32.8 °F 6.8 °F 28% 30.22 in 10.0 mi East 5.8 mph - N/A   Clear
2:15 PM 37.4 °F 31.4 °F 6.8 °F 28% 30.22 in 10.0 mi ESE 8.1 mph - N/A   Clear
2:35 PM 35.6 °F 28.6 °F 5.0 °F 28% 30.22 in 10.0 mi ESE 9.2 mph - N/A   Clear
2:55 PM 35.6 °F 30.7 °F 8.6 °F 33% 30.22 in 10.0 mi ESE 5.8 mph - N/A   Clear
3:15 PM 37.4 °F 32.8 °F 8.6 °F 30% 30.22 in 10.0 mi East 5.8 mph - N/A   Clear
3:35 PM 37.4 °F 30.8 °F 6.8 °F 28% 30.22 in 10.0 mi East 9.2 mph - N/A   Clear
3:55 PM 35.6 °F 29.2 °F 8.6 °F 33% 30.23 in 10.0 mi East 8.1 mph - N/A   Clear
4:15 PM 33.8 °F 27.0 °F 8.6 °F 35% 30.23 in 10.0 mi East 8.1 mph - N/A   Clear
4:35 PM 33.8 °F 26.4 °F 6.8 °F 32% 30.23 in 10.0 mi ENE 9.2 mph - N/A   Clear
4:55 PM 33.8 °F 27.7 °F 5.0 °F 30% 30.23 in 10.0 mi ENE 6.9 mph - N/A   Clear
5:15 PM 32.0 °F 27.5 °F 6.8 °F 35% 30.23 in 10.0 mi ENE 4.6 mph - N/A   Clear
5:35 PM 32.0 °F - 8.6 °F 38% 30.23 in 10.0 mi Calm Calm - N/A   Clear
5:55 PM 28.4 °F - 10.4 °F 47% 30.24 in 10.0 mi Calm Calm - N/A   Clear
6:15 PM 26.6 °F - 12.2 °F 55% 30.24 in 10.0 mi Calm Calm - N/A   Clear
6:35 PM 26.6 °F - 12.2 °F 55% 30.25 in 10.0 mi Calm Calm - N/A   Clear
6:55 PM 26.6 °F - 12.2 °F 55% 30.26 in 10.0 mi Calm Calm - N/A   Clear
7:15 PM 26.6 °F - 10.4 °F 51% 30.26 in 10.0 mi Calm Calm - N/A   Clear
7:35 PM 23.0 °F - 12.2 °F 63% 30.26 in 10.0 mi Calm Calm - N/A   Clear
7:55 PM 23.0 °F - 12.2 °F 63% 30.27 in 10.0 mi Calm Calm - N/A   Clear
8:15 PM 21.2 °F - 10.4 °F 63% 30.27 in 10.0 mi Calm Calm - N/A   Clear
8:35 PM 21.2 °F - 10.4 °F 63% 30.28 in 10.0 mi Calm Calm - N/A   Clear
8:55 PM 19.4 °F - 10.4 °F 68% 30.28 in 10.0 mi Calm Calm - N/A   Clear
9:15 PM 19.4 °F 14.3 °F 10.4 °F 68% 30.29 in 10.0 mi East 3.5 mph - N/A   Clear
9:35 PM 19.4 °F 14.3 °F 8.6 °F 63% 30.28 in 10.0 mi East 3.5 mph - N/A   Clear
9:55 PM 19.4 °F 14.3 °F 8.6 °F 63% 30.28 in 10.0 mi East 3.5 mph - N/A   Clear
10:15 PM 17.6 °F 12.3 °F 8.6 °F 68% 30.28 in 10.0 mi East 3.5 mph - N/A   Clear
10:35 PM 17.6 °F - 8.6 °F 68% 30.27 in 10.0 mi Calm Calm - N/A   Clear
10:55 PM 17.6 °F 12.3 °F 8.6 °F 68% 30.27 in 10.0 mi East 3.5 mph - N/A   Clear
11:15 PM 17.6 °F 12.3 °F 6.8 °F 63% 30.27 in 10.0 mi East 3.5 mph - N/A   Clear
11:35 PM 17.6 °F - 8.6 °F 68% 30.27 in 10.0 mi Calm Calm - N/A   Clear
11:55 PM 19.4 °F - 8.6 °F 63% 30.27 in 7.0 mi Calm Calm - N/A   Clear